EW3950 Pantokratora GR current weather conditions

sailwx.info

Wind from 297 at 1 knots gusting 3

Air temperature 25.6° C
Dewpoint 15.8° C

Last reported at 2020-Aug-09 08:06 UTC.
Time now 2020-Aug-09 08:32 UTC

Location: N 39°45' E 019°50'.
View on Google Maps.

See reports from other nearby stations

  
Tides and Currents Weather Stations Pressure Air Temp Water Temp Dewpoint Dewpoint Depression Visibility Wind Speed Wind Dir Waves Ship Positions
date/time (UTC)wind fromknots sea level pressurealtimeterstation pressurevisibilityair tempwater tempwave heightnotes
2020-Aug-09 08:06 297 1 gusting 3 25.6
2020-Aug-09 07:57 336 1 gusting 4 25.6
2020-Aug-09 07:48 339 0 gusting 4 26.1
2020-Aug-09 07:39 285 0 gusting 2 25.6
2020-Aug-09 07:30 279 1 gusting 3 24.4
2020-Aug-09 07:21 294 0 gusting 2 24.4
2020-Aug-09 07:12 23.9
2020-Aug-09 07:03 23.3
2020-Aug-09 06:54 23.3
2020-Aug-09 06:45 23.3
2020-Aug-09 06:36 23.3
2020-Aug-09 06:27 289 23.3
2020-Aug-09 06:18 266 0 gusting 2 23.3
2020-Aug-09 06:09 280 0 gusting 3 23.3
2020-Aug-09 06:00 298 1 gusting 4 22.8
2020-Aug-09 05:51 305 0 gusting 3 22.8
2020-Aug-09 05:42 096 0 gusting 3 22.8
2020-Aug-09 05:33 099 1 gusting 4 22.2
2020-Aug-09 05:24 111 1 gusting 3 22.2
2020-Aug-09 05:15 102 1 gusting 4 22.2
2020-Aug-09 05:06 141 0 gusting 4 22.2
2020-Aug-09 04:57 127 0 gusting 3 22.2
2020-Aug-09 04:48 130 0 gusting 3 22.2
2020-Aug-09 04:39 123 0 gusting 3 21.7
2020-Aug-09 04:30 185 0 gusting 3 21.1
2020-Aug-09 04:21 146 21.1
2020-Aug-09 04:12 244 21.1
2020-Aug-09 04:03 256 0 gusting 3 21.1
2020-Aug-09 03:54 269 21.1
2020-Aug-09 03:45 179 21.1
2020-Aug-09 03:36 184 20.6
2020-Aug-09 03:27 230 20.6
2020-Aug-09 03:18 219 20.6
2020-Aug-09 03:09 214 20.6
2020-Aug-09 03:00 166 20.0
2020-Aug-09 02:51 164 20.0
2020-Aug-09 02:42 152 20.0
2020-Aug-09 02:33 153 20.0
2020-Aug-09 02:24 230 20.6
2020-Aug-09 02:15 230 20.6
2020-Aug-09 02:06 194 20.0
2020-Aug-09 01:57 162 20.0
2020-Aug-09 01:48 205 20.0
2020-Aug-09 01:39 169 20.0
2020-Aug-09 01:30 171 20.0
2020-Aug-09 01:21 214 20.0
2020-Aug-09 01:12 203 19.4
2020-Aug-09 01:03 136 0 gusting 1 19.4
2020-Aug-09 00:54 116 20.0
2020-Aug-09 00:45 284 20.6
2020-Aug-09 00:36 279 0 gusting 3 20.6
2020-Aug-09 00:27 281 1 gusting 6 20.6
2020-Aug-09 00:18 277 1 gusting 5 20.6
2020-Aug-09 00:09 291 1 gusting 5 20.6
2020-Aug-09 00:00 258 1 gusting 5 20.6
2020-Aug-08 23:51 261 1 gusting 6 20.6
2020-Aug-08 23:42 306 1 gusting 6 20.0
2020-Aug-08 23:33 293 1 gusting 5 20.0
2020-Aug-08 23:24 282 1 gusting 5 19.4
2020-Aug-08 23:15 290 1 gusting 6 19.4
2020-Aug-08 23:06 267 2 gusting 6 20.0
2020-Aug-08 22:57 272 2 gusting 10 20.0
2020-Aug-08 22:48 237 1 gusting 4 19.4
2020-Aug-08 22:39 244 1 gusting 4 19.4
2020-Aug-08 22:30 262 0 gusting 3 19.4
2020-Aug-08 22:21 253 0 gusting 4 19.4
2020-Aug-08 22:12 269 1 gusting 4 19.4
2020-Aug-08 22:03 264 0 gusting 5 18.9
2020-Aug-08 21:54 281 0 gusting 3 18.3
2020-Aug-08 21:45 265 18.3
2020-Aug-08 21:36 242 0 gusting 2 18.9
2020-Aug-08 21:27 149 0 gusting 2 18.3
2020-Aug-08 21:18 128 1 gusting 3 18.3
2020-Aug-08 21:09 128 0 gusting 3 16.7
2020-Aug-08 21:00 16.1
2020-Aug-08 20:51 16.1
2020-Aug-08 20:42 16.1
2020-Aug-08 20:33 16.1
2020-Aug-08 20:24 16.1
2020-Aug-08 20:15 16.1
2020-Aug-08 20:06 16.1
2020-Aug-08 19:57 145 16.1
2020-Aug-08 19:48 141 16.1
2020-Aug-08 19:39 138 16.1
2020-Aug-08 19:30 135 16.1
2020-Aug-08 19:21 135 16.1
2020-Aug-08 19:12 135 16.1
2020-Aug-08 19:03 16.1
2020-Aug-08 18:54 16.1
2020-Aug-08 18:45 16.7
2020-Aug-08 18:36 16.7
2020-Aug-08 18:27 135 16.7
2020-Aug-08 18:18 135 16.7
2020-Aug-08 18:09 135 17.2
2020-Aug-08 18:00 129 17.2
2020-Aug-08 17:51 139 17.8
2020-Aug-08 17:42 109 17.8
2020-Aug-08 17:33 17.8
2020-Aug-08 17:24 102 17.8
2020-Aug-08 17:15 18.3
2020-Aug-08 17:06 102 18.3
2020-Aug-08 16:57 117 18.3
2020-Aug-08 16:48 130 18.3
2020-Aug-08 16:39 115 18.3
2020-Aug-08 16:30 18.3
2020-Aug-08 16:21 18.3
2020-Aug-08 16:12 117 18.3
2020-Aug-08 16:03 18.3
2020-Aug-08 15:54 130 0 gusting 1 18.3
2020-Aug-08 15:45 120 0 gusting 2 18.3
2020-Aug-08 15:36 113 18.3
2020-Aug-08 15:27 119 0 gusting 2 18.3
2020-Aug-08 15:18 123 18.3
2020-Aug-08 14:24 009 2 gusting 6 21.7
2020-Aug-08 14:15 029 0 gusting 3 22.8
2020-Aug-08 14:06 333 0 gusting 2 23.3
2020-Aug-08 13:57 320 2 gusting 6 23.9
2020-Aug-08 13:48 306 1 gusting 5 24.4
2020-Aug-08 13:39 018 1 gusting 5 23.9
2020-Aug-08 13:30 025 2 gusting 6 23.3
2020-Aug-08 13:21 309 2 gusting 7 23.3
2020-Aug-08 13:12 015 2 gusting 6 23.3
2020-Aug-08 13:03 341 1 gusting 6 23.3
2020-Aug-08 12:54 303 2 gusting 6 23.3
2020-Aug-08 12:45 310 2 gusting 5 23.9
2020-Aug-08 12:36 323 2 gusting 6 23.9
2020-Aug-08 12:27 319 2 gusting 6 24.4
2020-Aug-08 12:18 308 0 gusting 6 25.0
2020-Aug-08 12:09 25.0
2020-Aug-08 12:00 25.0
2020-Aug-08 11:51 24.4
2020-Aug-08 11:42 24.4
2020-Aug-08 11:33 25.0
2020-Aug-08 11:24 25.0
2020-Aug-08 11:15 24.4
2020-Aug-08 11:06 24.4
2020-Aug-08 10:57 24.4
2020-Aug-08 10:48 24.4
2020-Aug-08 10:39 24.4
2020-Aug-08 10:30 25.0
2020-Aug-08 10:21 24.4
2020-Aug-08 10:12 24.4
2020-Aug-08 10:03 23.9
2020-Aug-08 09:54 23.9
2020-Aug-08 09:45 23.9
2020-Aug-08 09:36 23.3
2020-Aug-08 09:27 23.9
2020-Aug-08 09:18 23.9
2020-Aug-08 09:09 23.3
2020-Aug-08 09:00 23.3
2020-Aug-08 08:51 23.3
2020-Aug-08 08:42 22.8
2020-Aug-08 08:33 23.3
2020-Aug-08 08:24 23.3
2020-Aug-08 08:15 22.8
2020-Aug-08 08:06 22.8
2020-Aug-08 07:57 22.8
2020-Aug-08 07:48 22.8
2020-Aug-08 07:39 22.2
2020-Aug-08 07:30 22.8
2020-Aug-08 07:21 22.2
2020-Aug-08 07:12 21.7
2020-Aug-08 07:03 21.1
2020-Aug-08 06:54 21.1
2020-Aug-08 06:45 20.6
2020-Aug-08 06:36 20.0
2020-Aug-08 06:27 20.0
2020-Aug-08 06:18 18.9
2020-Aug-08 06:09 18.3
2020-Aug-08 06:00 17.8
2020-Aug-08 05:51 17.2
2020-Aug-08 05:42 17.2
2020-Aug-08 05:33 16.7
2020-Aug-08 05:24 16.1
2020-Aug-08 05:15 16.1
2020-Aug-08 05:06 15.6
2020-Aug-08 04:57 15.6
2020-Aug-08 04:21 15.0
2020-Aug-08 04:12 15.0
2020-Aug-08 04:03 15.0
2020-Aug-08 03:54 15.0
2020-Aug-08 03:45 15.0
2020-Aug-08 03:36 15.0
2020-Aug-08 03:27 15.0
2020-Aug-08 03:18 15.0
2020-Aug-08 03:09 15.0
2020-Aug-08 03:00 15.0
2020-Aug-08 02:51 15.0
2020-Aug-08 02:42 15.0
2020-Aug-08 02:33 15.0
2020-Aug-08 02:24 15.6
2020-Aug-08 02:15 15.6
2020-Aug-08 02:06 15.6
2020-Aug-08 01:57 15.6
2020-Aug-08 01:48 15.6
2020-Aug-08 01:39 15.6
2020-Aug-08 01:30 15.6
2020-Aug-08 01:21 15.0
2020-Aug-08 01:12 15.0
2020-Aug-08 01:03 15.0
2020-Aug-08 00:54 15.0
2020-Aug-08 00:45 15.0
2020-Aug-08 00:36 15.0
2020-Aug-08 00:27 15.0
2020-Aug-08 00:18 15.0
2020-Aug-08 00:09 15.6
2020-Aug-08 00:00 15.6
2020-Aug-07 23:51 15.6
2020-Aug-07 23:42 15.6
2020-Aug-07 23:33 15.6
2020-Aug-07 23:24 15.6
2020-Aug-07 23:15 15.6
2020-Aug-07 23:06 15.6
2020-Aug-07 22:57 15.6
2020-Aug-07 22:48 15.6
2020-Aug-07 22:39 15.6
2020-Aug-07 22:30 15.6
2020-Aug-07 22:21 15.6
2020-Aug-07 22:12 15.6
2020-Aug-07 22:03 15.6
2020-Aug-07 21:54 16.1
2020-Aug-07 21:45 16.1
2020-Aug-07 21:36 16.1
2020-Aug-07 21:27 130 16.1
2020-Aug-07 21:18 16.1
2020-Aug-07 21:09 16.7
2020-Aug-07 21:00 16.7
2020-Aug-07 20:51 17.2
2020-Aug-07 20:42 119 1 gusting 4 17.8
2020-Aug-07 20:33 119 2 gusting 4 17.8
2020-Aug-07 20:24 121 2 gusting 3 17.8
2020-Aug-07 20:15 123 2 gusting 4 17.8
2020-Aug-07 20:06 127 1 gusting 2 16.7
2020-Aug-07 19:57 123 16.1
2020-Aug-07 19:48 16.1
2020-Aug-07 19:39 16.1
2020-Aug-07 19:30 16.1
2020-Aug-07 19:21 16.1
2020-Aug-07 19:12 16.1
2020-Aug-07 19:03 16.7
2020-Aug-07 18:54 120 16.7
2020-Aug-07 18:45 16.7
2020-Aug-07 18:36 17.2
2020-Aug-07 18:27 17.8
2020-Aug-07 18:18 122 18.3
2020-Aug-07 18:09 129 18.3
2020-Aug-07 18:00 129 18.3
2020-Aug-07 17:51 121 0 gusting 1 18.9
2020-Aug-07 17:42 118 0 gusting 2 19.4
2020-Aug-07 17:33 117 19.4
2020-Aug-07 17:24 133 0 gusting 2 20.6
2020-Aug-07 17:15 050 0 gusting 3 20.6
2020-Aug-07 17:06 088 0 gusting 3 21.7
2020-Aug-07 16:57 309 0 gusting 3 21.7
2020-Aug-07 16:48 313 1 gusting 4 21.7
2020-Aug-07 16:39 287 0 gusting 2 22.2
2020-Aug-07 16:30 285 0 gusting 2 22.8
2020-Aug-07 16:21 313 0 gusting 1 23.3
2020-Aug-07 16:12 013 0 gusting 5 23.3
2020-Aug-07 16:03 305 0 gusting 1 23.3
2020-Aug-07 15:54 324 22.8
2020-Aug-07 15:45 015 21.7
2020-Aug-07 15:36 057 0 gusting 2 20.6
2020-Aug-07 15:27 041 0 gusting 3 20.6
2020-Aug-07 15:18 031 20.6
2020-Aug-07 15:09 324 20.6
2020-Aug-07 15:00 044 0 gusting 3 20.6
2020-Aug-07 14:51 050 0 gusting 3 20.6
2020-Aug-07 14:42 056 1 gusting 6 20.6
2020-Aug-07 14:15 280 0 gusting 3 20.6
2020-Aug-07 14:06 019 0 gusting 2 21.7
2020-Aug-07 13:57 038 0 gusting 4 22.2